Home   Weather   Iqaluit   Past weeks

Flag for Canada Past Weather in Iqaluit, Nunavut, Canada — Yesterday and Last 2 Weeks

18 °F

Light snow. Passing clouds.

Feels Like: 1 °F
Forecast: 9 / 23 °F
Wind: 20 mph from Northwest

Location: Iqaluit

Current Time: Oct 25, 2016 at 2:41:54 AM

Latest Report: Oct 25, 2016 at 2:00 AM

Visibility: 15 mi

Pressure: 30.17 "Hg

Humidity: 79%

Dew Point: 12 °F

Location of IqaluitLocation

Past Weather in Iqaluit — Graph


Iqaluit Temperature Yesterday

Maximum temperature yesterday: 12 °F (at 1:00 PM)
Minimum temperature yesterday: 1 °F (at 12:00 AM)
Average temperature yesterday: 8 °F

High & Low Weather Summary for the Past Weeks

High34 °F (Oct 10, 2:00 PM)93% (Oct 10, 1:00 AM)30.50 "Hg (Oct 10, 1:00 AM)
Low1 °F (Oct 24, 12:00 AM)58% (Oct 18, 9:00 PM)29.64 "Hg (Oct 13, 1:00 PM)
Average21 °F79%30.06 "Hg
* Reported Oct 10 1:00 AM — Oct 25 1:00 AM, Iqaluit, Weather by CustomWeather, © 2016

Note: Actual official high and low records may vary slightly from our data, if they occured in-between our weather recording intervals... More about our weather records


Iqaluit Weather History for the Previous 24 Hours

Scroll right to see more
Time TempWeatherWind HumidityBarometerVisibility
1:00 AM
Tue, Oct 25
16 °FLight snow. Low clouds.13 mph79%30.18 "Hg15 mi
12:00 AM16 °FLight snow. Mostly cloudy.25 mph79%30.17 "Hg15 mi
11:00 PM
Mon, Oct 24
12 °FLight snow. Passing clouds.21 mph85%30.19 "Hg4 mi
10:00 PM12 °FLow level haze.21 mph79%30.19 "Hg15 mi
9:00 PM10 °FLow level haze.22 mph79%30.19 "Hg15 mi
8:00 PM12 °FLow level haze.20 mph79%30.19 "Hg15 mi
7:00 PM12 °FPassing clouds.16 mph79%30.20 "Hg15 mi
6:00 PM12 °FPassing clouds.12 mph79%30.21 "Hg15 mi
5:00 PM12 °FPassing clouds.17 mph79%30.21 "Hg20 mi
4:00 PM12 °FScattered clouds.15 mph73%30.22 "Hg30 mi
3:00 PM12 °FScattered clouds.22 mph79%30.22 "Hg30 mi
2:00 PM12 °FScattered clouds.24 mph79%30.22 "Hg30 mi
1:47 PM12 °FScattered clouds.18 mph79%30.23 "Hg20 mi
1:00 PM12 °FScattered clouds.20 mph79%30.24 "Hg6 mi
12:00 PM10 °FScattered clouds.25 mph72%30.24 "Hg15 mi
11:00 AM7 °FSnow flurries. Partly sunny.25 mph78%30.27 "Hg5 mi
10:00 AM5 °FSnow flurries. Sunny.23 mph78%30.29 "Hg1 mi
9:00 AM3 °FSnow flurries. Low level haze.22 mph78%30.30 "Hg15 mi
8:00 AM3 °FSnow flurries. Low level haze.23 mph78%30.29 "Hg30 mi
7:00 AM3 °FPassing clouds.14 mph78%30.31 "Hg20 mi
6:00 AM5 °FClear.25 mph78%30.30 "Hg15 mi
5:00 AM3 °FClear.20 mph72%30.32 "Hg15 mi
4:00 AM3 °FClear.20 mph78%30.35 "Hg15 mi
3:00 AM5 °FClear.28 mph72%30.36 "Hg15 mi
2:00 AM3 °FClear.17 mph72%30.35 "Hg15 mi
Weather by CustomWeather, © 2016

See weather overviewHow to use our weather pages